{"data":{"norad_id":66463,"intl_designator":"2025-262H","name":"STARLINK-35463","alt_names":[],"object_type":"PAYLOAD","status":"ACTIVE","operator":null,"country":"US","launch_date":"2025-11-15","launch_site_code":"AFETR","launch_vehicle":null,"mission":null,"orbit_class":"UNKNOWN","rcs_meters":null,"size_class":null,"mass_kg":null,"dimensions":null,"purposes":["comms"],"wikipedia_slug":null,"has_3d_model":false,"image_url":null,"decayed_at":null,"tle_current":{"epoch":"2026-09-19T02:10:55.880256Z","epoch_age_seconds":211663,"freshness":"STALE","line1":"1 66463U 25262H   26262.09092454  .00011099  00000+0  41219-3 0  9992","line2":"2 66463  43.0022 284.0292 0003093 288.3424  71.7091 15.27583043 48488","mean_motion":15.27583043,"eccentricity":0.0003093,"inclination_deg":43.0022,"raan_deg":284.0292,"arg_perigee_deg":288.3424,"mean_anomaly_deg":71.7091,"bstar":0.00041219,"rev_number":4848,"period_min":94.26656093092,"perigee_km":480.91782217685,"apogee_km":485.16214625928,"semimajor_km":6861.1769842181,"source":"CELESTRAK","updated_at":"2026-09-21T09:00:35.913728Z"}}}